Regional Weather Roundup
Issued by NWS

Home | Current Version | Previous Version | Text Only | Print | Product List | Glossary Off
Versions: 1 2 3 4 5 6 7 8 9 10 11 12 13 14 15 16 17 18 19 20 21 22 23 24 25 26 27 28 29 30 31 32 33 34 35 36 37 38 39 40 41 42 43 44 45 46 47 48 49 50

000
ASUS43 KMKX 052321
RWRWI

WISCONSIN REGIONAL WEATHER ROUNDUP
NATIONAL WEATHER SERVICE MILWAUKEE/SULLIVAN WI
600 PM CDT SUN JUL 05 2015

NOTE: "FAIR" INDICATES FEW OR NO CLOUDS BELOW 12,000 FEET WITH NO
SIGNIFICANT WEATHER AND/OR OBSTRUCTIONS TO VISIBILITY.

WIZ001-002-006>008-014>016-023>028-060000-
NORTHWEST WISCONSIN

CITY           SKY/WX    TMP DP  RH WIND       PRES   REMARKS
SUPERIOR ARPT  PTSUNNY   84  69  61 S15G21    29.78F HX  87
ASHLAND        PTSUNNY   82  66  58 S15G23    29.82F HX  84
HAYWARD        PTSUNNY   80  65  59 S14       29.86F HX  82
SIREN          PTSUNNY   83  67  57 S17G23    29.84F HX  85
CUMBERLAND     PTSUNNY   79  64  61 S14       29.88S HX  81
RICE LAKE      PTSUNNY   81  65  56 S14G22    29.89F HX  83
CHETEK         PTSUNNY   82  68  63 SE12G22   29.89F HX  84
LADYSMITH      PTSUNNY   81  65  58 S12       29.92F HX  83
EAU CLAIRE     MOSUNNY   82  65  56 S15       29.90F HX  84
MENOMONIE      MOSUNNY   82  67  60 SE12      29.90S HX  85
NEW RICHMOND   PTSUNNY   82  67  61 S15G21    29.87S HX  84
OSCEOLA        PTSUNNY   84  69  60 S16G23    29.87S HX  88
$$

WIZ003>005-009-010-017-018-060000-
NORTH CENTRAL WISCONSIN

CITY           SKY/WX    TMP DP  RH WIND       PRES   REMARKS
MANITOWISH WTR MOSUNNY   78  62  58 SW10G16   29.93S HX  80
ARBOR VITAE    MOSUNNY   80  62  54 SW13      29.93F HX  81
WOODRUFF       MOSUNNY   80  62  54 SW13      29.93F HX  81
RHINELANDER    MOSUNNY   80  60  50 SW14      29.96F HX  81
EAGLE RIVER    MOSUNNY   79  57  47 S8        29.94S HX  80
LAND O LAKES   MOSUNNY   80  59  48 SW7       29.94F HX  80
PHILLIPS       PTSUNNY   78  63  60 S9G17     29.93S HX  80
TOMAHAWK       SUNNY     79  62  57 S5        29.95F HAZE    HX  80
MEDFORD        MOSUNNY   80  63  55 S9        29.95F HX  81
MERRILL        SUNNY     80  63  55 SW9       29.96F HX  82
$$

WIZ029-030-035-036-043>047-060000-
CENTRAL WISCONSIN

CITY           SKY/WX    TMP DP  RH WIND       PRES   REMARKS
WAUSAU         SUNNY     82  59  45 S15       29.95F HX  82
MOSINEE        SUNNY     79  63  57 S12G17    29.98F HX  80
MARSHFIELD     MOSUNNY   81  62  52 S14       29.95F HX  82
STEVENS POINT  SUNNY     80  61  51 S13G18    29.96F HX  81
WAUPACA        MOSUNNY   83  62  47 S10       29.97S HX  84
WAUTOMA        SUNNY     84  62  47 SW12      29.98S HX  84
WISC RAPIDS    MOSUNNY   82  60  47 S12       29.97F HX  82
CAMP DOUGLAS   SUNNY     82  67  59 S8        29.95F HX  85
$$

WIZ011>013-019>022-031-037>040-048>050-060000-
NORTHEAST WISCONSIN

CITY           SKY/WX    TMP DP  RH WIND       PRES   REMARKS
ANTIGO         SUNNY     77  64  65 S12       29.97F
SHAWANO        SUNNY     83  60  45 SW7       29.96S HX  83
OCONTO         SUNNY     78  66  65 S12       29.96S HX  80
STURGEON BAY   SUNNY     72  59  64 S15G21    30.01S
GREEN BAY      SUNNY     82  61  48 S12       29.97F HX  83
MANITOWOC      SUNNY     73  60  63 MISG      30.01F
APPLETON       MOSUNNY   81  61  50 S12       29.99F HX  81
CLINTONVILLE   SUNNY     82  61  47 S14       29.97S HX  83
OSHKOSH        SUNNY     81  63  54 S12       29.98F HX  82
$$

WIZ032>034-041-042-053>061-060000-
SOUTHWEST WISCONSIN

CITY           SKY/WX    TMP DP  RH WIND       PRES   REMARKS
LA CROSSE      MOSUNNY   83  65  54 S16       29.93F HX  85
SPARTA         MOSUNNY   83  60  44 S12       29.95F HX  83
VIROQUA        MOSUNNY   80  64  57 S10G18    29.98F HX  81
BOSCOBEL       PTSUNNY   82  66  58 VRB6      29.97F HX  84
PRAIRIE DU CHI PTSUNNY   82  62  51 SE8       29.95F HX  83
PLATTEVILLE    PTSUNNY   78  64  62 S10       29.99F HX  80
$$

WIZ056-057-062-063-064-067-068-060000-
SOUTH CENTRAL WISCONSIN

CITY           SKY/WX    TMP DP  RH WIND       PRES   REMARKS
REEDSBURG      SUNNY     82  65  57 SW9       29.97F HX  83
BARABOO/DELLS  MOSUNNY   81  61  51 S12G17    29.98F HX  81
LONE ROCK      PTSUNNY   83  63  50 S12       29.98F HX  84
MINERAL POINT  MOSUNNY   81  64  57 S13       30.00F HX  82
MADISON        PTSUNNY   82  62  50 S15       29.99F HX  83
MIDDLETON      MOSUNNY   82  60  46 S13       30.00F HX  83
WATERTOWN      MOSUNNY   79  64  60 S8        30.01S HX  81
MONROE         MOSUNNY   79  63  57 S12       30.01F HX  80
JANESVILLE     MOSUNNY   82  63  51 SW8       30.01F HX  83
$$

WIZ051-052-058>065-066-070>072-060000-
SOUTHEAST WISCONSIN

CITY           SKY/WX    TMP DP  RH WIND       PRES   REMARKS
MILWAUKEE      MOSUNNY   77  59  53 S14       30.02F
WAUKESHA       SUNNY     79  61  53 S14       30.03F HX  80
MILWAUKEE/TIMM SUNNY     81  57  44 S12       30.03S HX  81
RACINE         SUNNY     76  58  53 SE10      30.05F
BURLINGTON     SUNNY     78  62  57 S7        30.02F
KENOSHA        SUNNY     78  60  53 SE8       30.04F
FOND DU LAC    SUNNY     81  63  54 S14       29.99F HX  82
SHEBOYGAN      SUNNY     75  60  59 S14G22    30.02F
WEST BEND      SUNNY     77  61  57 SE7       30.01F
JUNEAU         SUNNY     80  63  56 S12       30.02S HX  81
$$

LSZ147-162-060000-
LAKE SUPERIOR

STATION/POSITION TIME  TEMP    WIND        PRES    WAVE
                       AIR SEA DIR/SP/G            HT/PER
                 (UTC) (F)     (DEG/KT/KT) (MB)    (FT/S)
W MID LAKE BUOY  2250   47 39  120/ 10/ 10 1009.9F   1
DEVILS ISLAND    2300   75     210/  6/  7 1008.6F
SAXON HARBOR     2240   83     200/  8/ 15 1009.5F
$$

LMZ867-665-643>646-060000-
LAKE MICHIGAN

STATION/POSITION TIME  TEMP    WIND        PRES    WAVE
                       AIR SEA DIR/SP/G            HT/PER
                 (UTC) (F)     (DEG/KT/KT) (MB)    (FT/S)
CHAMBERS ISLAND  2200   76     160/  7/ 11 1015.2F
S GREEN BAY BUOY 2300   75 71  170/ 14/ 19 1016.0F
N MID LAKE BUOY  2250   57 47  200/ 10/ 12 1015.5F   1/ 3
NORTHPORT PIER   2200   72     150/  8/ 14 1015.2F
SISTER BAY       2244   74     200/ 20/ 25   N/A
ALGOMA LAKESHORE 2211          210/ 12/ 14   N/A
KEWAUNEE LAKESHO 2300   64     190/ 12/ 15 1015.4F
SHEBOYGAN LAKESH 2300   64     180/ 14/ 15 1016.6F
PORT WASHINGTON  2200   71     190/  3/  5 1017.6S
ATWATER BUOY     2300   66 61  150/ 12/ 14 1017.8F
MILWAUKEE LAKESH 2300   66     140/ 14/ 16   N/A
KENOSHA   LAKESH 2300   69     180/  7/  8 1016.6F
$$

TC  - TEMPERATURE IN CELSIUS
VSB - VISIBILITY IN STATUTE MILES
WCI - WIND CHILL INDEX
HX  - HEAT INDEX



USA.gov is the U.S. government's official web portal to all federal, state and local government web resources and services.